Tampico, Mexico

12:08 PM CDT on September 26, 2017 (GMT -0500)
Gen Francisco Javier Mina

Weather History for MMTM - September, 2013

Change the Weather History Date:

Saturday, September 7, 2013

  Actual Average Record
Temperature  
Mean Temperature 78 °F -  
Max Temperature 83 °F 87 °F 97 °F (2015)
Min Temperature 73 °F 71 °F 73 °F (1996)
Cooling Degree Days 13    
Growing Degree Days 28 (Base 50)    
Moisture  
Dew Point 74 °F    
Average Humidity 87    
Maximum Humidity 100    
Minimum Humidity 74    
Precipitation  
Precipitation 0.20 in 0.23 in - ()
Sea Level Pressure  
Sea Level Pressure 29.93 in    
Wind  
Wind Speed 6 mph ()    
Max Wind Speed 12 mph    
Max Gust Speed -    
Visibility 7.7 miles    
Events Rain , Thunderstorm    
Averages and records for this station are not official NWS values.
T = Trace of Precipitation, MM = Missing Value Source: Averaged Metar Reports

Daily Weather History Graph

Daily Weather History Graph

Search for Another Location

Airport or City:

Trip Planner

Search our weather history database for the weather conditions in past years. The results will help you decide how hot, cold, wet, or windy it might be!

Date:

Astronomy

Sep. 07, 2013 Rise Set
Actual Time 7:16 AM CDT 7:42 PM CDT
Civil Twilight 6:53 AM CDT 8:04 PM CDT
Nautical Twilight 6:27 AM CDT 8:31 PM CDT
Astronomical Twilight 6:00 AM CDT 8:57 PM CDT
Moon 9:09 AM CDT (9/7) 9:07 PM CDT (9/7)
Length of Visible Light 13h 11m
Length of Day
12h 26m
Waxing Crescent, 5% of the Moon is Illuminated
Sep 7
Waxing Crescent
Sep 12
First Quarter
Sep 19
Full
Sep 26
Last Quarter
Oct 4
New

Hourly Weather History & Observations

Time (CDT) Temp. Heat Index Dew Point Humidity Pressure Visibility Wind Dir Wind Speed Gust Speed Precip Events Conditions
12:40 AM 74 °F - 74 °F 100% 29.98 in 6 mi ENE 4.5 mph - - Rain , Thunderstorm Thunderstorms and Rain
3:40 AM 76 °F - 75 °F 96% 29.95 in 6 mi NNE 4.5 mph - - Rain , Thunderstorm Thunderstorms and Rain
5:25 AM 75.2 °F - 73.4 °F 94% 29.90 in 7.0 mi North 10.4 mph - N/A   Mostly Cloudy
5:42 AM 75.2 °F - 71.6 °F 89% 29.91 in 7.0 mi North 11.5 mph - N/A   Overcast
6:45 AM 74 °F - 73 °F 96% 29.95 in 6 mi North 4.5 mph - - Rain Light Drizzle
6:47 AM 75.2 °F - 71.6 °F 89% 29.89 in 7.0 mi NNW 8.1 mph - N/A   Overcast
7:43 AM 75.2 °F - 71.6 °F 89% 29.92 in 5.0 mi North 8.1 mph - N/A   Overcast
8:45 AM 75.2 °F - 73.4 °F 94% 29.93 in 5.0 mi North 8.1 mph - N/A   Mostly Cloudy
9:40 AM 76 °F - 73 °F 89% 29.99 in 16 mi NNE 4.5 mph - -   Partly Cloudy
9:44 AM 77.0 °F - 73.4 °F 89% 29.95 in 5.0 mi North 10.4 mph - N/A   Overcast
11:48 AM 78.8 °F - 73.4 °F 83% 29.97 in 5.0 mi North 9.2 mph - N/A   Overcast
12:40 PM 82 °F - 75 °F 74% 30.00 in 16 mi NNE 8.9 mph - -   Partly Cloudy
12:41 PM 80.6 °F 86.2 °F 75.2 °F 84% 29.93 in 5.0 mi NE 6.9 mph - N/A   Overcast
1:51 PM 80.6 °F 86.2 °F 75.2 °F 84% 29.95 in 5.0 mi ESE 9.2 mph - N/A   Overcast
2:44 PM 78.8 °F - 73.4 °F 83% 29.93 in 5.0 mi ESE 9.2 mph - N/A   Overcast
3:40 PM 81 °F - 76 °F 79% 29.94 in 16 mi NE 8.9 mph - - Rain Light Drizzle
3:43 PM 80.6 °F 85.4 °F 73.4 °F 79% 29.90 in 5.0 mi ESE 9.2 mph - N/A   Overcast
4:51 PM 80.6 °F 85.4 °F 73.4 °F 79% 29.87 in 5.0 mi NNE 5.8 mph - N/A   Overcast
5:47 PM 80.6 °F 85.4 °F 73.4 °F 79% 29.88 in 7.0 mi NE 4.6 mph - N/A   Overcast
6:43 PM 78.8 °F - 73.4 °F 83% 29.90 in 5.0 mi Calm Calm - N/A   Overcast
6:55 PM 80 °F - 76 °F 82% 29.94 in 16 mi NNE 4.5 mph - - Rain Light Drizzle
7:49 PM 78.8 °F - 73.4 °F 83% 29.90 in 10.0 mi Calm Calm - N/A   Scattered Clouds
8:50 PM 77.0 °F - 73.4 °F 89% 29.91 in 8.0 mi Calm Calm - N/A   Scattered Clouds
9:40 PM 77 °F - 76 °F 94% 29.96 in 6 mi NNW 2.2 mph - -   Partly Cloudy
9:47 PM 77.0 °F - 73.4 °F 89% 29.91 in 8.0 mi Calm Calm - N/A   Scattered Clouds
10:45 PM 75.2 °F - 73.4 °F 94% 29.93 in 8.0 mi Calm Calm - N/A   Partly Cloudy